Location: Newark
(42.8481°N, 0.4872°E)
Time: 17:43:45
(UTC+00:00)

Vanguard 1 - Pass Details

Date: 29 October 2020
Orbit: 650 x 3833 km, 34.2° (Epoch: 28 November)

Event Time Altitude Azimuth Distance (km) Brightness Sun altitude
Rises 11:54:25 0° 229° (SW) 7,102 15.0 33.4°
Reaches altitude 10° 11:58:54 10° 225° (SW) 6,375 15.0 33.3°
Maximum altitude 12:20:03 54° 155° (SSE) 4,336 14.5 32.8°
Drops below altitude 10° 12:40:10 10° 87° (E) 6,125 14.0 31.9°
Sets 12:44:20 0° 83° (E) 6,824 14.1 31.6°
